Location: Legnaro
(45.3333°N, 11.9667°E)
Time: 18:55:07
(UTC+00:00)

Daily predictions for brighter satellites

Satellite Brightness Start Highest point End
(mag) Time Altitude Azimuth Time Altitude Azimuth Time Altitude Azimuth
Cosmos 2333 4.5 17:26:48 10° S 17:32:11 48° ESE 17:37:39 10° NE
Cosmos 1844 3.7 17:26:59 10° NNW 17:32:47 71° ENE 17:38:27 10° SSE
Cosmos 2278 Rocket 3.5 17:30:49 10° N 17:35:06 21° NE 17:39:22 10° E
FALCON 9 DEB 4.2 17:35:33 10° NW 17:38:24 29° NNE 17:41:15 10° E
SJ 16-02 2.9 17:35:29 10° NNE 17:38:29 18° NE 17:41:29 10° E
SAR-Lupe-4 4.4 17:35:58 10° NE 17:39:09 29° E 17:42:19 10° SSE
Meteor 1-5 Rocket 4.3 17:34:43 10° SSE 17:39:54 50° E 17:45:18 10° NNE
IRS-1C Rocket 4.1 17:37:17 10° SSE 17:42:34 85° ENE 17:47:52 10° NNW
SL-4 R/B 1.6 17:40:03 10° WNW 17:43:38 74° NNE 17:47:03 10° ESE
Cosmos 1536 4.1 17:40:57 10° SE 17:43:51 20° E 17:46:45 10° NE
COSMO-SKYMED 1 3.1 17:39:51 10° N 17:44:11 64° WNW 17:48:27 10° SSW
FALCON 9 DEB 3.9 17:43:28 10° NW 17:46:25 33° NNE 17:49:12 11° E
SeaSat 1 3.5 17:42:48 10° NE 17:46:47 24° ESE 17:50:44 10° SSE
Cosmos 2242 Rocket 3.6 17:43:41 10° N 17:48:10 66° E 17:52:33 10° SSE
Gbstr 26 Del rocket 4.1 17:46:38 10° WNW 17:50:50 40° N 17:55:47 11° E
USA 234 4.5 17:46:57 10° ENE 17:51:27 19° ESE 17:55:56 10° SSE
Cosmos 2333 Rocket 2.3 17:47:29 10° S 17:53:01 56° ESE 17:58:38 10° NNE
USA 238 DEB 4.5 17:48:10 10° SSE 17:53:30 27° ESE 17:58:59 10° ENE
USA 238 4.5 17:48:19 10° SSE 17:53:37 27° ESE 17:59:05 10° ENE
Abrixas rocket 1.5 17:52:19 10° WNW 17:54:47 66° NNE 17:56:40 15° E
Meteor 2-4 Rocket 3.9 17:53:15 10° NNW 17:59:10 87° W 18:05:07 10° S
Helios 1A Rocket 3.0 17:55:17 10° SSE 17:59:12 53° ENE 18:03:09 10° N
Cosmos 2322 Rocket 3.8 17:54:14 10° WSW 17:59:24 37° NW 18:04:37 10° NNE
SAR-Lupe-1 4.1 17:56:06 10° NNE 17:59:38 54° E 18:03:08 10° S
Lacrosse 4 Rocket 1.5 17:56:01 10° SSW 18:00:23 68° ESE 18:04:52 10° NE
GP-B 3.1 17:56:49 10° SSE 18:01:11 62° E 18:05:34 10° N
DELTA 2 R/B (1) 4.4 17:56:29 10° SW 18:01:33 37° SSE 18:05:50 14° ESE
ARGOS 3.1 17:57:56 10° SSE 18:03:20 77° ENE 18:08:47 10° N
Cosmos 192 4.3 18:01:55 10° SSW 18:06:48 75° ESE 18:11:44 10° NNE
Cosmos 1869 Rocket 3.6 18:03:30 10° S 18:07:45 53° E 18:12:04 10° NNE
CZ-4 R/B 2.1 18:05:02 10° S 18:08:50 55° W 18:12:44 10° NNW
Cosmos 2219 Rocket 2.1 18:03:59 10° SSW 18:09:30 67° ESE 18:15:05 10° NNE
CZ-4B R/B 3.6 18:08:00 10° N 18:10:39 26° WNW 18:13:19 10° SW
FALCON 9 DEB 3.2 18:12:05 10° NW 18:15:11 51° NNE 18:16:47 24° E
ERS-2 2.1 18:11:38 10° NNE 18:15:19 89° ESE 18:18:58 10° SSW
CZ-2C R/B 2.6 18:10:21 10° NNE 18:15:46 65° ESE 18:21:02 10° S
Cosmos 1238 Rocket 3.4 18:12:19 10° SSE 18:16:00 32° E 18:19:10 10° NNE
Cosmos 1689 Rocket 2.2 18:14:00 10° N 18:16:54 71° WNW 18:19:45 10° SSW
SL-08 RB Rocket 3.6 18:13:47 10° SSE 18:18:17 75° ENE 18:22:53 10° N
Cosmos 1378 3.4 18:15:51 10° N 18:19:25 43° ENE 18:22:46 11° SSE
USA 305 3.9 18:16:22 10° NW 18:20:19 35° NNE 18:22:40 20° ENE
NOSS 3-2 (A) 3.5 18:16:50 10° S 18:22:06 47° ESE 18:28:06 10° NE
CREW DRAGON DEMO-1 DEB 2.5 18:19:58 10° SW 18:22:46 79° SSE 18:23:59 30° ENE
HJ-1C 3.9 18:19:40 10° S 18:22:57 62° W 18:26:14 10° NNW
COSMOS 2428 2.6 18:18:35 10° SSW 18:24:14 73° ESE 18:29:56 10° NNE
FALCON 9 DEB 3.2 18:21:32 10° NW 18:24:40 52° NNE 18:25:51 31° E
Cosmos 1733 Rocket 3.9 18:21:31 10° SE 18:25:09 27° E 18:28:50 10° NNE
SL-8 Rocket 4.0 18:26:53 10° S 18:33:06 84° W 18:39:20 10° N
CENTAUR R/B 2.8 18:28:32 10° S 18:33:49 39° ESE 18:40:00 10° NE
USA 307 3.7 18:30:07 10° NW 18:34:08 38° NNE 18:35:52 26° ENE
USA 306 3.7 18:31:22 10° NW 18:35:26 39° NNE 18:37:06 27° ENE
NOSS 0 Rocket 4.1 18:29:47 10° S 18:35:37 47° ESE 18:41:29 10° NE
ATLAS CENTAUR R/B 3.9 18:33:54 10° WNW 18:36:13 16° NW 18:38:34 10° N
Cosmos 1898 Rocket 4.3 18:33:08 10° N 18:37:46 31° ENE 18:39:11 27° E
Cosmos 1066 Rocket 4.2 18:32:07 10° N 18:37:55 78° E 18:43:46 10° SSE
Cosmos 1743 3.1 18:36:06 10° SSE 18:39:43 40° E 18:43:23 10° NNE
Cosmos 1666 4.2 18:38:07 10° SSW 18:41:38 38° WNW 18:45:10 10° N
CSL-04 Rocket 4.2 18:38:53 10° S 18:44:21 63° WSW 18:49:49 10° NNW
USA 308 3.6 18:40:55 10° NW 18:45:00 42° NNE 18:46:15 33° ENE
Cosmos 2322 4.5 18:39:42 10° SW 18:45:18 54° WNW 18:50:55 10° NNE
Meteor 1-23 Rocket 4.1 18:42:41 10° N 18:48:19 73° ENE 18:53:59 10° SSE
GRACE-FO 1 4.4 18:46:49 17° S 18:49:31 72° E 18:53:11 10° N
GRACE-FO 2 4.4 18:47:14 17° S 18:49:56 73° E 18:53:37 10° N
BREEZE-M DEB (TANK) 2.5 18:47:44 10° WSW 18:50:04 77° SSE 18:50:06 77° SE
Cosmos 2366 rocket 4.2 18:45:02 10° SSW 18:51:21 77° W 18:57:45 10° N
H-2A R/B 4.1 18:47:05 10° SSW 18:51:49 30° W 18:56:34 10° NNW
ASTEX 1 3.2 18:47:19 10° N 18:52:13 70° E 18:57:04 10° S
SJ-6B 2.7 18:52:44 32° SSE 18:54:31 74° ENE 18:58:32 10° N
Cosmos 1674 Rocket 4.1 18:51:33 10° N 18:55:16 38° ENE 18:55:16 38° ENE
Ariane Rocket 3.0 18:55:34 30° SE 18:58:03 63° ENE 19:03:05 10° N
Cosmos 990 Rocket 4.1 18:53:21 10° NNW 18:58:26 52° ENE 18:59:41 42° ESE
USA 186 2.5 18:59:36 38° NW 18:59:36 38° NW 19:01:30 10° NNW
Cosmos 2221 Rocket 3.4 18:55:14 10° N 18:59:41 84° E 19:02:11 26° SSE
OBJECT-B 1.2 19:02:09 53° N 19:02:09 53° N 19:04:44 10° N
Cosmos 1763 Rocket 3.7 18:56:33 10° S 19:01:35 45° ESE 19:06:37 10° NNE
NOSS 3-2 (C) 3.3 18:58:24 10° SSW 19:03:48 55° ESE 19:08:11 19° NE
SL-08 R/B 4.5 18:57:56 10° S 19:04:22 84° E 19:10:53 10° N
Meteor 1-11 Rocket 4.4 18:59:53 10° SSW 19:05:27 56° WNW 19:10:57 10° N
Cosmos 1378 Rocket 4.1 19:05:50 10° N 19:09:21 42° NE 19:09:21 42° NE
Cosmos 468 Rocket 3.9 19:08:01 10° S 19:13:14 60° ESE 19:18:26 10° NNE
FALCON 9 DEB 4.0 19:11:20 10° WNW 19:13:45 44° W 19:13:45 44° W
Cosmos 1821 Rocket 3.8 19:09:22 10° S 19:15:34 74° E 19:21:42 10° NNE
Cosmos 1943 Rocket 3.5 19:11:12 10° N 19:15:25 23° NE 19:15:25 23° NE
Cosmos 2237 Rocket 2.1 19:10:58 10° SSW 19:16:38 73° ESE 19:22:20 10° NNE
SJ 16-02 1.9 19:13:06 10° NNW 19:17:26 55° WSW 19:19:19 30° SSW
Cosmos 1544 3.5 19:13:56 10° SSW 19:17:32 61° W 19:21:11 10° N
Cosmos 1727 Rocket 4.3 19:11:30 10° NNW 19:17:38 68° W 19:23:48 10° S
MOS 1 4.2 19:15:42 28° SSE 19:18:54 88° WSW 19:24:37 10° NNW
Cosmos 2278 Rocket 2.3 19:14:09 10° NNW 19:19:50 76° WSW 19:22:11 36° S
USA 81 3.9 19:16:05 10° S 19:21:20 86° E 19:26:38 10° N
Cosmos 1000 Rocket 4.4 19:16:05 10° N 19:22:25 79° E 19:25:17 35° SSE
SL-4 R/B 3.8 19:20:20 10° W 19:22:47 18° SW 19:22:57 18° SW
Meteor 1-21 4.5 19:17:42 10° N 19:23:05 50° ENE 19:23:05 50° ENE
SPOT 3 Rocket 3.7 19:24:24 55° ENE 19:24:24 55° ENE 19:29:18 10° N
SeaSat 1 3.2 19:19:43 10° NNE 19:24:31 52° NW 19:29:18 10° SW
Cosmos 2239 Rocket 4.4 19:19:00 10° S 19:25:15 74° E 19:31:31 10° NNE
Cosmos 1934 Rocket 4.1 19:30:06 51° ENE 19:30:06 51° ENE 19:35:24 10° NNE
Resurs 01 Rocket 2.6 19:31:41 38° NNE 19:31:41 38° NNE 19:34:34 10° N
SME Rocket 4.2 19:25:25 10° NNE 19:32:38 66° WNW 19:37:24 10° SSW
USA 234 3.1 19:33:09 46° ENE 19:35:12 72° SE 19:41:44 10° SW
Cosmos 2333 Rocket 4.2 19:32:51 10° WSW 19:37:39 27° NW 19:42:31 10° N
Gbstr 26 Del rocket 3.4 19:33:16 10° WNW 19:38:11 87° NNE 19:38:19 85° E
Lacrosse 4 Rocket 4.2 19:36:22 10° W 19:39:33 19° NW 19:42:46 10° N
Cosmos 1937 Rocket 3.6 19:35:22 10° NNW 19:39:50 62° NNE 19:39:50 62° NNE
Cosmos 2123 Rocket 3.8 19:34:41 10° N 19:40:56 69° E 19:41:02 69° E
USA 238 DEB 3.9 19:37:19 10° SW 19:43:51 68° NW 19:50:45 10° NE
USA 238 3.9 19:37:25 10° SW 19:43:57 68° NW 19:50:51 10° NE
Resurs 1-3 4.1 19:45:27 56° WNW 19:45:27 56° WNW 19:49:25 10° NNW
DELTA 2 R/B (1) 4.2 19:42:10 10° WSW 19:46:36 43° SSW 19:46:36 43° SSW
Cosmos 2219 Rocket 4.4 19:49:33 10° W 19:53:58 23° NW 19:58:26 10° N
Terra 4.4 20:00:53 11° NNE 20:00:53 11° NNE 20:01:04 10° NNE
Cosmos 1980 4.5 19:56:03 10° SW 20:01:32 50° WNW 20:07:02 10° NNE
Cosmos 2369 Rocket 3.8 20:15:14 10° NNW 20:18:00 26° N 20:18:00 26° N
CENTAUR R/B 3.4 20:18:28 10° WSW 20:24:18 48° NW 20:31:17 10° NNE
Cosmos 1943 Rocket 3.9 20:54:19 10° NNW 20:56:57 28° NW 20:56:57 28° NW
Cosmos 2237 Rocket 4.4 20:56:55 10° W 21:01:18 22° NW 21:05:43 10° N
